Simultaneous Nadir Overpasses (SNOs) Predictions

Prediction of SNOs over PacNW region [( 10.00, 139.50) to ( 22.70, 165.60)] between AQUA and NPP Satellites:

Table of predicted SNOs over PacNW region for the next 30.0 days since TLE Epoch: 2/12/2022
Index Date (AQUA) Time (AQUA) AQUA Lat,Lon Date (NPP) Time (NPP) NPP Lat,Lon Distance(km) Time Diff (sec)
1 02/15/2022 15:10:11 22.60, 160.06 02/15/2022 15:11:12 23.21, 157.28 291.98 61
2 02/18/2022 03:31:57 22.69, 147.74 02/18/2022 03:28:27 26.10, 144.93 473.36 210
3 02/23/2022 15:59:22 22.59, 147.79 02/23/2022 16:01:58 23.30, 144.60 335.30 156
4 03/03/2022 15:09:35 22.59, 160.25 03/03/2022 15:11:15 23.24, 157.26 314.83 100
5 03/06/2022 03:31:18 22.69, 147.95 03/06/2022 03:27:48 23.65, 145.54 268.74 210
